Change the Weather History Date:

Friday, October 21, 2011

  Actual Average Record
Temperature  
Mean Temperature 51 °F 44 °F  
Max Temperature 54 °F 54 °F 77 °F (1979)
Min Temperature 47 °F 34 °F 15 °F (1972)
Degree Days  
Heating Degree Days 14 21  
Month to date heating degree days 266 373  
Since 1 July heating degree days 430 728  
Cooling Degree Days 0 0  
Month to date cooling degree days 0 0  
Year to date cooling degree days 308 263  
Moisture  
Dew Point 40 °F    
Average Humidity 73    
Maximum Humidity 86    
Minimum Humidity 59    
Precipitation  
Precipitation T in 0.10 in 1.41 in (1964)
Month to date precipitation 3.09 2.40  
Year to date precipitation 49.01 30.32  
Sea Level Pressure  
Sea Level Pressure 29.79 in    
Wind  
Wind Speed 7 mph (SW)    
Max Wind Speed 15 mph    
Max Gust Speed 26 mph    
Visibility 10 miles    
Events      
T = Trace of Precipitation, MM = Missing Value Source: NWS Daily Summary

Daily Weather History Graph

Daily Weather History Graph

Search for Another Location

Airport or City:

Trip Planner

Search our weather history database for the weather conditions in past years. The results will help you decide how hot, cold, wet, or windy it might be!

Date:

Astronomy

Oct. 21, 2011 Rise Set
Actual Time 7:12 AM EDT 5:56 PM EDT
Civil Twilight 6:42 AM EDT 6:26 PM EDT
Nautical Twilight 6:09 AM EDT 6:59 PM EDT
Astronomical Twilight 5:35 AM EDT 7:33 PM EDT
Moon 12:45 AM EDT (10/21) 2:51 PM EDT (10/21)
Length of Visible Light 11h 43m
Length of Day
10h 44m
Waning Crescent, 34% of the Moon is Illuminated
Oct 21
Waning Crescent
Oct 26
New
Nov 2
First Quarter
Nov 10
Full
Nov 18
Last Quarter

Hourly Weather History & Observations

Time (EDT) Temp. Dew Point Humidity Pressure Visibility Wind Dir Wind Speed Gust Speed Precip Events Conditions
12:51 AM 51.1 °F 37.9 °F 61% 29.63 in 10.0 mi SSW 6.9 mph - N/A   Overcast
1:51 AM 51.1 °F 37.9 °F 61% 29.64 in 10.0 mi SSW 6.9 mph - N/A   Overcast
2:51 AM 48.9 °F 39.0 °F 69% 29.64 in 10.0 mi South 6.9 mph - N/A   Overcast
3:51 AM 48.9 °F 39.0 °F 69% 29.64 in 10.0 mi South 5.8 mph - N/A   Overcast
4:51 AM 48.0 °F 39.9 °F 74% 29.65 in 10.0 mi South 3.5 mph - N/A   Overcast
5:51 AM 46.9 °F 42.1 °F 83% 29.68 in 10.0 mi Variable 5.8 mph - 0.00 in   Overcast
6:51 AM 48.0 °F 39.0 °F 71% 29.69 in 10.0 mi South 4.6 mph - N/A   Overcast
7:51 AM 48.2 °F 37.4 °F 66% 29.70 in 10.0 mi SW 8.1 mph - N/A   Overcast
8:51 AM 48.9 °F 39.0 °F 69% 29.74 in 10.0 mi WSW 11.5 mph - N/A   Overcast
9:23 AM 50.0 °F 39.2 °F 66% 29.74 in 10.0 mi SSW 13.8 mph 19.6 mph N/A   Overcast
9:51 AM 48.9 °F 39.0 °F 69% 29.75 in 10.0 mi SSW 12.7 mph 18.4 mph N/A   Overcast
10:51 AM 51.8 °F 39.2 °F 62% 29.77 in 10.0 mi SSW 11.5 mph 17.3 mph N/A   Overcast
11:37 AM 51.8 °F 39.2 °F 62% 29.78 in 10.0 mi SW 11.5 mph - N/A   Overcast
11:51 AM 54.0 °F 41.0 °F 62% 29.79 in 10.0 mi SW 6.9 mph - N/A   Overcast
12:51 PM 53.1 °F 39.9 °F 61% 29.80 in 10.0 mi WSW 10.4 mph 16.1 mph N/A   Overcast
1:51 PM 53.1 °F 41.0 °F 64% 29.81 in 10.0 mi SW 8.1 mph - N/A   Overcast
2:51 PM 54.0 °F 42.1 °F 64% 29.82 in 10.0 mi WSW 9.2 mph - N/A   Overcast
3:51 PM 54.0 °F 41.0 °F 62% 29.83 in 10.0 mi WSW 6.9 mph - N/A   Overcast
4:51 PM 53.1 °F 41.0 °F 64% 29.86 in 10.0 mi WSW 9.2 mph - N/A   Overcast
5:51 PM 52.0 °F 41.0 °F 66% 29.89 in 10.0 mi WSW 10.4 mph - N/A   Scattered Clouds
6:51 PM 51.1 °F 39.9 °F 66% 29.92 in 10.0 mi Variable 5.8 mph - N/A   Mostly Cloudy
7:51 PM 51.1 °F 39.9 °F 66% 29.93 in 10.0 mi WSW 6.9 mph - N/A   Overcast
8:51 PM 51.1 °F 39.9 °F 66% 29.95 in 10.0 mi SW 4.6 mph - N/A   Overcast
9:51 PM 50.0 °F 39.9 °F 68% 29.96 in 10.0 mi SW 5.8 mph - N/A   Overcast
10:51 PM 48.9 °F 39.9 °F 71% 29.96 in 10.0 mi Calm Calm - N/A   Overcast
11:51 PM 48.0 °F 39.9 °F 74% 29.96 in 10.0 mi Calm Calm - N/A   Mostly Cloudy